Location: Cartignies
(50.0929°N, 3.8447°E)
Time: 14:06:16
(UTC+00:00)

YAOGAN 1 - Pass Details

Date: 12 January 2026
Orbit: 605 x 607 km, 97.8° (Epoch: 16 February)

Event Time Altitude Azimuth Distance (km) Brightness Sun altitude
Rises 17:25:24 0° 145° (SE) 2,856 5.8 -12.1°
Reaches altitude 10° 17:27:39 10° 138° (SE) 1,956 4.9 -12.5°
Maximum altitude 17:31:38 41° 69° (ENE) 891 2.9 -13.1°
Drops below altitude 10° 17:35:39 10° 359° (N) 1,970 5.0 -13.7°
Sets 17:37:55 0° 352° (N) 2,879 5.9 -14.0°
